Location: Newark
(49.3000°N, 9.4667°E)
Time: 01:38:02
(UTC+00:00)

ISS - Visible Passes

Search period start: 17 February 2019 00:00
Search period end: 27 February 2019 00:00
Orbit: 403 x 411 km, 51.6° (Epoch: 17 February)

Date Brightness Start Highest point End Pass type
(mag) Time Alt. Az. Time Alt. Az. Time Alt. Az.
23 Feb -1.0 05:33:58 10° S 05:36:17 18° SE 05:38:36 10° E visible
24 Feb -0.7 04:44:01 10° SSE 04:45:02 11° SE 04:46:03 10° ESE visible
25 Feb -2.3 05:26:33 10° SW 05:29:33 34° SSE 05:32:34 10° E visible
26 Feb -1.6 04:35:46 11° SSW 04:38:11 22° SE 04:40:47 10° E visible
